This is the latest recevied weather packets stored in our database for station/object N3WMC. If no packets are shown the sender has not sent any weather packets the latest 10 day(s).
| Time | Temp. | Humidity | Pressure | Rain* | Wind** | Luminosity | Snow |
|---|---|---|---|---|---|---|---|
| 1787942715 | 23.89° C | 69% | 1021.7 hPa | 0 mm | - | 187 W/m² | - |
| 1787942414 | 23.89° C | 69% | 1021.6 hPa | 0 mm | - | 150 W/m² | - |
| 1787942109 | 23.89° C | 69% | 1021.7 hPa | 0 mm | - | 152 W/m² | - |
| 1787941805 | 23.89° C | 70% | 1021.6 hPa | 0 mm | - | 186 W/m² | - |
| 1787941504 | 23.89° C | 73% | 1021.7 hPa | 0 mm | - | 172 W/m² | - |
| 1787941204 | 23.33° C | 74% | 1021.8 hPa | 0 mm | - | 163 W/m² | - |
| 1787940898 | 23.89° C | 74% | 1021.5 hPa | 0 mm | - | 166 W/m² | - |
| 1787940596 | 23.33° C | 75% | 1021.7 hPa | 0 mm | - | 157 W/m² | - |
| 1787940291 | 22.78° C | 75% | 1021.7 hPa | 0 mm | - | 143 W/m² | - |
| 1787939990 | 22.78° C | 77% | 1021.7 hPa | 0 mm | - | 123 W/m² | - |
| 1787939689 | 22.78° C | 78% | 1021.9 hPa | 0 mm | - | 98 W/m² | - |
| 1787939384 | 22.78° C | 78% | 1021.7 hPa | 0 mm | - | 83 W/m² | - |
| 1787939079 | 22.22° C | 79% | 1021.8 hPa | 0 mm | - | 78 W/m² | - |
| 1787938778 | 22.22° C | 81% | 1021.8 hPa | 0 mm | - | 67 W/m² | - |
| 1787938474 | 22.22° C | 81% | 1021.7 hPa | 0 mm | - | 61 W/m² | - |
| 1787938169 | 22.22° C | 82% | 1021.7 hPa | 0 mm | - | 68 W/m² | - |
| 1787937864 | 22.78° C | 82% | 1021.8 hPa | 0 mm | - | 65 W/m² | - |
| 1787937560 | 22.78° C | 80% | 1021.8 hPa | 0 mm | - | 51 W/m² | - |
| 1787937256 | 22.78° C | 78% | 1021.6 hPa | 0 mm | - | 60 W/m² | - |
| 1787936952 | 23.89° C | 76% | 1021.9 hPa | 0 mm | - | 92 W/m² | - |
| 1787936650 | 23.89° C | 74% | 1021.5 hPa | 0 mm | - | 170 W/m² | - |
| 1787936350 | 23.89° C | 71% | 1021.6 hPa | 0 mm | - | 286 W/m² | - |
| 1787936045 | 24.44° C | 70% | 1021.6 hPa | 0 mm | - | 279 W/m² | - |
| 1787935740 | 23.89° C | 71% | 1021.7 hPa | 0 mm | - | 359 W/m² | - |
| 1787935437 | 23.89° C | 72% | 1021.6 hPa | 0 mm | - | 292 W/m² | - |
* Rain latest hour (hover to see other rain measurements)
** Current wind speed in m/s (hover to see current wind gust speed)